THOR ABLESTAR DEB, 172

Orbit data source: Space-Track

THOR ABLESTAR DEB, 172 is space debris in LEO originally from a launch on Thu, 29 Jun 1961 UTC launched from the Air Force Eastern Test Range (AFETR). Debris objects in space refer to the collection of defunct objects orbiting the Earth. Examples of debris include non-operational satellites, rocket bodies, and fragments generated from explosions, collisions, or faulty payload assembly.

Loading next visibility...
Identifier
172, 1961-015AY
Orbit
LEO
Country
Flag of USUS
Related business
Manufacturer
Unknown
Mission
Spacecraft
Bus & Motor
Unknown
Mass
Unknown
Launch date (UTC)
1961-06-29 (65 years ago)
Launch vehicle
Unknown
Launch site
Air Force Eastern Test Range (AFETR)
Object type
Payload
Rocket body
Debris
Shape & HBR
Unknown shape, 0.2 m
Radar Cross Section
Small (<0.1 m²)

Expand to show TLE details & history
Last TLE update: 1 day ago

TLE from 1 day ago
0 THOR ABLESTAR DEB
1 00172U 61015AY  26014.46616508  .00000304  00000-0  47778-3 0  9995
2 00172  67.0669 160.0913 0132086 176.2363 183.9728 13.59141906184228
Epoch: 2026-01-14T11:11Z
TLE epoch observation values (Epoch: 2026-01-14T11:11:16.662Z)
Latitude
-0.00006°
Longitude
-121.6619°
Altitude
1,138.626 km
Speed
7.236 km/s
True Right ascension
10h 40m 21s
True Declination
0° 00' 00"
Sunlit
Object was in full shadow at epoch
Visualization orbit readout
Latitude
Unknown
Longitude
Unknown
Altitude
Unknown
Speed
Unknown
Apparent Right ascension
Unknown
Apparent Declination
Unknown
Sunlit
N/A
Visualization observer readout
Local Sidereal Time
13:01:18
Azimuth
Unknown
Elevation
Unknown
Doppler factor
Unknown
Orbital elements
Apogee altitude
1,135.146 km
Perigee altitude
939.254 km
Semi-major axis
7,415.337 km
Eccentricity
0.01321
Inclination
67.0669°
RAAN
160.0913°
Arg. of periapsis
176.2363°
True anomaly
183.86963°
Mean anomaly
183.9728°
Eccentric anomaly
183.92105°
Mean motion
3.39897 °/min
Orbital period
105.91 mins
BSTAR
0.00047778
Loading maneuver chart data...
Computing Atmospheric mass density...

Documentation

Showing up to 5 results
|